This is the latest recevied weather packets stored in our database for station/object KG7MRB. If no packets are shown the sender has not sent any weather packets the latest 10 day(s).
| Time | Temp. | Humidity | Pressure | Rain* | Wind** | Luminosity | Snow |
|---|---|---|---|---|---|---|---|
| 1778167963 | 11.67° C | 90% | 1038.8 hPa | 0 mm | - | 120 W/m² | - |
| 1778167660 | 11.67° C | 90% | 1038.9 hPa | 0 mm | - | 119 W/m² | - |
| 1778167356 | 12.22° C | 90% | 1038.8 hPa | 0 mm | - | 113 W/m² | - |
| 1778167052 | 11.67° C | 90% | 1038.9 hPa | 0 mm | - | 102 W/m² | - |
| 1778166749 | 11.67° C | 91% | 1038.7 hPa | 0 mm | - | 97 W/m² | - |
| 1778166446 | 11.67° C | 90% | 1038.8 hPa | 0 mm | - | 90 W/m² | - |
| 1778166143 | 11.67° C | 91% | 1038.6 hPa | 0 mm | - | 82 W/m² | - |
| 1778165839 | 11.11° C | 92% | 1038.5 hPa | 0 mm | - | 79 W/m² | - |
| 1778165536 | 11.67° C | 91% | 1038.8 hPa | 0 mm | - | 60 W/m² | - |
| 1778165232 | 11.11° C | 92% | 1038.8 hPa | 0 mm | - | 59 W/m² | - |
| 1778164930 | 11.11° C | 92% | 1039 hPa | 0 mm | - | 55 W/m² | - |
| 1778164627 | 11.11° C | 92% | 1038.9 hPa | 0 mm | - | 48 W/m² | - |
| 1778164324 | 11.11° C | 92% | 1038.9 hPa | 0 mm | - | 53 W/m² | - |
| 1778164019 | 11.11° C | 92% | 1038.8 hPa | 0 mm | - | 67 W/m² | - |
| 1778163716 | 11.11° C | 93% | 1038.8 hPa | 0 mm | - | 58 W/m² | - |
| 1778163412 | 10.56° C | 93% | 1038.7 hPa | 0 mm | - | 50 W/m² | - |
| 1778163109 | 10.56° C | 93% | 1038.8 hPa | 0 mm | - | 45 W/m² | - |
| 1778162806 | 10.56° C | 94% | 1038.7 hPa | 0 mm | - | 35 W/m² | - |
| 1778162504 | 10.56° C | 94% | 1038.9 hPa | 0 mm | - | 29 W/m² | - |
| 1778162200 | 10.56° C | 95% | 1038.8 hPa | 0 mm | - | 26 W/m² | - |
| 1778161898 | 10.56° C | 95% | 1038.8 hPa | 0 mm | - | 23 W/m² | - |
| 1778161594 | 10.56° C | 95% | 1039.2 hPa | 0 mm | - | 22 W/m² | - |
| 1778161290 | 10.56° C | 95% | 1038.7 hPa | 0 mm | - | 20 W/m² | - |
| 1778160986 | 10.56° C | 95% | 1038.8 hPa | 0 mm | - | 19 W/m² | - |
| 1778160684 | 10.56° C | 96% | 1038.6 hPa | 0 mm | - | 18 W/m² | - |
* Rain latest hour (hover to see other rain measurements)
** Current wind speed in m/s (hover to see current wind gust speed)